Thunder radar more information blitzortung!


Radar de pluja more information rain snow radar


Visita la nostra xarxa de llocs de meteo:

Template documentation
and downloads

And another site



No particular awareness of the weather is required.    There are no Weather-warnings

Pagina Historial Weather Underground text

Diari Resum Desembre 2, 2017 Unitats:  Imperial    Mètric   Tant
« Previous Dia
SegĂźent Dia »
Diari Setmana Mensual Anual Personalitzada
  Maxima: Minima: Media:
Temperatura: 49.3 °F 31.1 °F 39.9 °F
Punt de rosada: 21 °F 5.2 °F 13.8 °F
Humitat: 51 % 19 % 36 %
Wind Speed: 12.7 mph 0 mph 4.1 mph
RĂ fegues de vent: 12.7 mph - -
Vent:- - SW
Pression baro: 30 in 29.8 in -
Precipitacions: 0 in    
Historical Graphs
 
 
Dades de taula per Desembre 2, 2017
Temps Temperatura Punt de rosada Pression baro Vent Wind Speed RĂ fegues de vent Humitat Rainfall Rate (Hourly)
00:04 36.1 °F 15.8 °F 29.9 in WSW 4.6 mph 4.6 mph 43 % 0 in
00:15 35.8 °F 15.4 °F 29.9 in WSW 5 mph 5 mph 43 % 0 in
00:20 36 °F 15.1 °F 29.9 in WSW 2 mph 2 mph 42 % 0 in
00:25 35.6 °F 14.7 °F 29.9 in SW 2 mph 3 mph 42 % 0 in
00:30 35.6 °F 14.7 °F 29.9 in WSW 2 mph 3 mph 42 % 0 in
00:35 35.6 °F 14.2 °F 29.9 in SW 2 mph 3 mph 41 % 0 in
00:40 35.2 °F 13.8 °F 29.9 in WSW 2 mph 2 mph 41 % 0 in
00:45 35.1 °F 13.6 °F 29.9 in West 1 mph 2 mph 41 % 0 in
00:55 35.2 °F 13.8 °F 29.9 in WSW 2 mph 3 mph 41 % 0 in
01:00 35.2 °F 13.8 °F 29.9 in WSW 1 mph 2 mph 41 % 0 in
01:05 34.9 °F 14.2 °F 29.9 in West 3 mph 3 mph 42 % 0 in
01:10 35.1 °F 14.2 °F 29.9 in WSW 2 mph 4 mph 42 % 0 in
01:15 35.1 °F 14.2 °F 29.9 in WSW 1 mph 4 mph 42 % 0 in
01:25 34.9 °F 14.2 °F 29.9 in West 2 mph 2 mph 42 % 0 in
01:30 34.7 °F 13.8 °F 29.9 in West 1 mph   42 % 0 in
01:35 34.5 °F 13.8 °F 29.9 in WSW 2 mph 2 mph 42 % 0 in
01:40 34.5 °F 13.8 °F 29.9 in SW 2 mph 2 mph 42 % 0 in
01:45 34.3 °F 13.6 °F 29.9 in Calm   2 mph 42 % 0 in
01:50 34.2 °F 13.5 °F 29.9 in WSW 2 mph 4 mph 42 % 0 in
01:55 34.3 °F 13.6 °F 29.9 in West 2 mph 4 mph 42 % 0 in
02:00 34.5 °F 14.4 °F 29.9 in West 3 mph 3 mph 43 % 0 in
02:05 34.3 °F 14.2 °F 29.9 in West 2 mph 3 mph 43 % 0 in
02:10 34.3 °F 14.2 °F 29.9 in West 1 mph 2 mph 43 % 0 in
02:15 34.3 °F 14.2 °F 29.9 in WSW 3 mph 3 mph 43 % 0 in
02:25 34.5 °F 14.4 °F 29.9 in West 2 mph 3 mph 43 % 0 in
02:30 34.3 °F 14.2 °F 29.9 in WSW 3 mph 3 mph 43 % 0 in
02:35 34.2 °F 14 °F 29.9 in WSW 3 mph 5 mph 43 % 0 in
02:40 34.5 °F 14.4 °F 29.9 in WSW 3 mph 5 mph 43 % 0 in
02:45 34.5 °F 14.4 °F 29.9 in West 5 mph 5 mph 43 % 0 in
03:00 34.5 °F 14.4 °F 29.9 in WSW 6 mph 6 mph 43 % 0 in
03:05 34.5 °F 14.4 °F 29.9 in WSW 3 mph 4 mph 43 % 0 in
03:10 34.5 °F 14.4 °F 29.9 in WSW 3 mph 4 mph 43 % 0 in
03:15 34.3 °F 14.2 °F 29.9 in WSW 3 mph 3 mph 43 % 0 in
03:20 34.3 °F 14.2 °F 29.9 in WSW 1 mph 3 mph 43 % 0 in
03:25 34.3 °F 14.2 °F 29.9 in SW 2 mph 4 mph 43 % 0 in
03:30 34.3 °F 14.2 °F 29.9 in West 3 mph 4 mph 43 % 0 in
03:35 34.2 °F 14 °F 29.9 in West 2 mph 3 mph 43 % 0 in
03:45 34.2 °F 14 °F 29.9 in WSW 3 mph 4 mph 43 % 0 in
03:55 34 °F 14.4 °F 29.9 in SW 3 mph 4 mph 44 % 0 in
04:00 34.2 °F 14.5 °F 29.9 in WSW 6 mph 6 mph 44 % 0 in
04:05 34.5 °F 14.7 °F 29.9 in WSW 8 mph 8 mph 44 % 0 in
04:10 34.5 °F 14.7 °F 29.9 in WSW 6 mph 6 mph 44 % 0 in
04:15 34.5 °F 15.3 °F 29.9 in WSW 7 mph 7 mph 45 % 0 in
04:20 34.5 °F 15.3 °F 29.9 in WSW 5 mph 6 mph 45 % 0 in
04:25 34.5 °F 15.3 °F 29.9 in West 3 mph 4 mph 45 % 0 in
04:30 34.2 °F 15.1 °F 29.9 in West 3 mph 4 mph 45 % 0 in
04:35 34 °F 14.7 °F 29.9 in WSW 3 mph 5 mph 45 % 0 in
04:40 33.8 °F 15.3 °F 29.9 in West 3 mph 5 mph 46 % 0 in
04:45 34 °F 15.3 °F 29.9 in West 5 mph 5 mph 46 % 0 in
04:50 34.2 °F 15.4 °F 29.9 in West 3 mph 5 mph 46 % 0 in
04:55 34.2 °F 15.4 °F 29.9 in WNW 2 mph 3 mph 46 % 0 in
05:00 34 °F 15.8 °F 29.9 in West 1 mph 2 mph 47 % 0 in
05:05 33.8 °F 15.6 °F 29.9 in WSW 2 mph 2 mph 47 % 0 in
05:10 33.8 °F 15.6 °F 29.9 in West 1 mph 2 mph 47 % 0 in
05:15 33.3 °F 15.3 °F 29.9 in WNW 1 mph 2 mph 47 % 0 in
05:20 33.1 °F 15.1 °F 29.9 in West 1 mph 2 mph 47 % 0 in
05:25 32.9 °F 14.7 °F 29.9 in NW 2 mph 2 mph 47 % 0 in
05:30 32.9 °F 14.7 °F 29.9 in WNW 1 mph 2 mph 47 % 0 in
05:35 32.9 °F 14.7 °F 29.9 in Calm   1 mph 47 % 0 in
05:40 32.7 °F 15.3 °F 29.9 in NNW 1 mph 2 mph 48 % 0 in
05:45 32.7 °F 15.3 °F 29.9 in NE 2 mph 2 mph 48 % 0 in
05:55 32.2 °F 14.2 °F 29.9 in NW 1 mph 2 mph 47 % 0 in
06:00 32.2 °F 14.2 °F 29.9 in NNW 1 mph 2 mph 47 % 0 in
06:10 32 °F 14.5 °F 29.9 in NW 1 mph 3 mph 48 % 0 in
06:15 31.8 °F 14.4 °F 29.9 in NNE 1 mph 3 mph 48 % 0 in
06:20 31.6 °F 14.2 °F 29.9 in NNE 2 mph 4 mph 48 % 0 in
06:25 31.5 °F 14 °F 29.9 in Calm   4 mph 48 % 0 in
06:30 31.1 °F 14.2 °F 29.9 in ENE 1 mph 3 mph 49 % 0 in
06:35 31.1 °F 14.2 °F 29.9 in NNE 2 mph 2 mph 49 % 0 in
06:40 31.1 °F 14.2 °F 29.9 in NE 2 mph 2 mph 49 % 0 in
06:50 31.3 °F 14.7 °F 29.9 in NNE 1 mph 5 mph 50 % 0 in
06:55 31.5 °F 14.9 °F 29.9 in WNW 1 mph 3 mph 50 % 0 in
07:00 31.5 °F 14.9 °F 29.9 in WSW 1 mph 3 mph 50 % 0 in
07:05 31.8 °F 15.3 °F 29.9 in West 2 mph   50 % 0 in
07:10 31.8 °F 15.3 °F 29.9 in West 2 mph 2 mph 50 % 0 in
07:19 31.8 °F 15.3 °F 29.9 in ENE 2.4 mph 2.4 mph 50 % 0 in
07:20 31.8 °F 15.3 °F 29.9 in ENE 2.4 mph 2.4 mph 50 % 0 in
07:25 31.6 °F 15.6 °F 29.9 in NE 2.3 mph 2.4 mph 51 % 0 in
07:30 31.3 °F 15.3 °F 29.9 in East 1.6 mph 1.6 mph 51 % 0 in
07:40 31.3 °F 15.3 °F 29.9 in WNW 1.2 mph   51 % 0 in
07:50 31.8 °F 15.6 °F 29.9 in West 2.3 mph 2.3 mph 51 % 0 in
08:00 32 °F 16 °F 29.9 in ENE 1.6 mph 1.6 mph 51 % 0 in
08:15 32.2 °F 16.2 °F 29.9 in NNW 1.2 mph 1.2 mph 51 % 0 in
08:20 32.2 °F 16.2 °F 29.9 in West 2.3 mph   51 % 0 in
08:25 32.5 °F 16.3 °F 29.9 in WSW 2.4 mph 2.4 mph 51 % 0 in
08:30 32.7 °F 16.5 °F 29.9 in WSW 7.4 mph 7.4 mph 51 % 0 in
08:35 32.7 °F 16.5 °F 29.9 in WSW 3.5 mph 3.5 mph 51 % 0 in
08:40 32.9 °F 16.7 °F 29.9 in WSW 3.5 mph 3.5 mph 51 % 0 in
08:45 33.3 °F 17.1 °F 29.9 in West 4.6 mph 4.6 mph 51 % 0 in
08:50 33.8 °F 17.6 °F 29.9 in SSW 1.6 mph 1.6 mph 51 % 0 in
08:55 34.2 °F 18 °F 29.9 in SW 2.3 mph 2.3 mph 51 % 0 in
09:00 34.7 °F 18.3 °F 29.9 in WSW 2.3 mph 2.3 mph 51 % 0 in
09:05 34.7 °F 18.3 °F 29.9 in WNW 4.7 mph 4.7 mph 51 % 0 in
09:10 35.1 °F 18.7 °F 29.9 in SW 5.8 mph 5.8 mph 51 % 0 in
09:15 35.4 °F 19 °F 29.9 in SSW 4 mph 4 mph 51 % 0 in
09:25 36.5 °F 19.6 °F 29.9 in WSW 8.1 mph 8.1 mph 50 % 0 in
09:30 36.9 °F 19.9 °F 29.9 in WSW 6.9 mph 6.9 mph 50 % 0 in
09:40 37.6 °F 20.7 °F 29.9 in WNW 5.4 mph 5.4 mph 50 % 0 in
09:45 38.1 °F 20.7 °F 29.9 in WSW 3.5 mph 3.5 mph 49 % 0 in
09:50 38.3 °F 20.3 °F 29.9 in WSW 3.6 mph 3.6 mph 48 % 0 in
09:55 38.7 °F 20.7 °F 29.9 in WSW 11.5 mph 11.5 mph 48 % 0 in
10:00 39 °F 20.5 °F 29.9 in WSW 8.1 mph 8.1 mph 47 % 0 in
10:20 40.1 °F 21 °F 29.9 in WSW 5.8 mph 5.8 mph 46 % 0 in
10:25 40.6 °F 20.8 °F 29.9 in SW 3.5 mph 3.5 mph 45 % 0 in
10:30 40.8 °F 21 °F 29.9 in WSW 7.1 mph 7.1 mph 45 % 0 in
10:40 41.2 °F 20.3 °F 29.9 in WSW 9.8 mph 9.8 mph 43 % 0 in
10:45 41.5 °F 20.7 °F 29.9 in SW 8.7 mph 8.7 mph 43 % 0 in
10:50 42.1 °F 20.7 °F 29.9 in West 5.8 mph 5.8 mph 42 % 0 in
11:00 42.6 °F 20.5 °F 29.9 in West 9.2 mph 9.2 mph 41 % 0 in
11:05 43 °F 20.3 °F 29.9 in SW 8.1 mph 8.1 mph 40 % 0 in
11:10 43.5 °F 20.8 °F 29.9 in WSW 5.9 mph 5.9 mph 40 % 0 in
11:15 43.3 °F 19.4 °F 29.9 in West 10.4 mph 10.4 mph 38 % 0 in
11:20 43.5 °F 19.6 °F 29.9 in West 10.4 mph 10.4 mph 38 % 0 in
11:25 44.2 °F 20.1 °F 29.9 in South 5.6 mph 5.6 mph 38 % 0 in
11:30 43.9 °F 19.9 °F 29.9 in West 8.1 mph 8.1 mph 38 % 0 in
11:35 43.5 °F 18.9 °F 29.9 in WSW 7.6 mph 7.6 mph 37 % 0 in
11:40 43.3 °F 18.1 °F 29.9 in West 9.8 mph 9.8 mph 36 % 0 in
11:45 43.5 °F 18.3 °F 29.9 in SW 6.9 mph 6.9 mph 36 % 0 in
11:50 43.7 °F 18.5 °F 29.9 in WSW 5.8 mph 5.8 mph 36 % 0 in
11:55 43.9 °F 18 °F 29.9 in SW 6.9 mph 6.9 mph 35 % 0 in
12:00 44.2 °F 18.3 °F 29.9 in WNW 8.1 mph 8.1 mph 35 % 0 in
12:05 44.4 °F 18.3 °F 29.9 in WSW 9.2 mph 9.2 mph 35 % 0 in
12:08 44.4 °F 18.3 °F 29.9 in WSW 10.4 mph 10.4 mph 35 % 0 in
12:13 44.8 °F 18.1 °F 29.9 in NNW 10.5 mph 10.5 mph 34 % 0 in
12:18 45 °F 17.4 °F 29.9 in SW 6.9 mph 6.9 mph 33 % 0 in
12:23 45.1 °F 17.8 °F 29.9 in WNW 5.8 mph 5.8 mph 33 % 0 in
12:28 45 °F 17.4 °F 29.9 in West 7.6 mph 7.6 mph 33 % 0 in
12:33 45 °F 16.9 °F 29.9 in West 9.2 mph 9.2 mph 32 % 0 in
12:38 45.1 °F 17.1 °F 29.9 in NW 5.8 mph 5.8 mph 32 % 0 in
12:43 45.9 °F 17.6 °F 29.9 in West 5.8 mph 5.8 mph 32 % 0 in
12:58 46.8 °F 17.8 °F 29.9 in WSW 8.1 mph 8.1 mph 31 % 0 in
13:03 46.9 °F 17.8 °F 29.9 in WSW 9.2 mph 9.2 mph 31 % 0 in
13:08 47.1 °F 18 °F 29.9 in NNW 5.8 mph 5.8 mph 31 % 0 in
13:13 47.7 °F 18.5 °F 29.9 in WSW 12.7 mph 12.7 mph 31 % 0 in
13:18 47.5 °F 17.4 °F 29.8 in SW 11.5 mph 11.5 mph 30 % 0 in
13:28 48.2 °F 18.1 °F 29.8 in WSW 6.9 mph 6.9 mph 30 % 0 in
13:33 48.2 °F 18.1 °F 29.8 in SW 8.1 mph 8.1 mph 30 % 0 in
13:38 48.9 °F 18.9 °F 29.8 in West 11.5 mph 11.5 mph 30 % 0 in
13:43 48.9 °F 18 °F 29.8 in NW 4.6 mph 4.6 mph 29 % 0 in
13:48 49.3 °F 19 °F 29.8 in West 7.4 mph 7.4 mph 30 % 0 in
13:53 49.1 °F 19 °F 29.8 in West 5.8 mph 5.8 mph 30 % 0 in
13:58 48.6 °F 16.9 °F 29.8 in WNW 8.1 mph 8.1 mph 28 % 0 in
14:13 48.2 °F 14.9 °F 29.8 in WSW 10.4 mph 10.4 mph 26 % 0 in
14:18 48.2 °F 14.9 °F 29.8 in SW 6.9 mph 6.9 mph 26 % 0 in
14:28 48 °F 13.8 °F 29.8 in WSW 6.9 mph 6.9 mph 25 % 0 in
14:29 48 °F 13.8 °F 29.8 in WSW 9.7 mph 9.7 mph 25 % 0 in
14:34 47.8 °F 11.8 °F 29.8 in West 5.8 mph 5.8 mph 23 % 0 in
14:39 48 °F 12.9 °F 29.8 in WNW 5.8 mph 5.8 mph 24 % 0 in
14:44 48 °F 12.9 °F 29.8 in West 5.8 mph 5.8 mph 24 % 0 in
14:49 48 °F 12.9 °F 29.8 in West 6.9 mph 6.9 mph 24 % 0 in
14:54 47.8 °F 12.7 °F 29.8 in WNW 4.6 mph 4.6 mph 24 % 0 in
14:59 47.7 °F 11.7 °F 29.8 in West 6.9 mph 6.9 mph 23 % 0 in
15:04 47.7 °F 11.7 °F 29.8 in WSW 8.1 mph 8.1 mph 23 % 0 in
15:09 47.5 °F 9.3 °F 29.8 in WSW 11.5 mph 11.5 mph 21 % 0 in
15:14 47.3 °F 9.3 °F 29.8 in WNW 6.9 mph 6.9 mph 21 % 0 in
15:19 47.3 °F 9.3 °F 29.8 in West 5.8 mph 5.8 mph 21 % 0 in
15:24 47.1 °F 9.1 °F 29.8 in WSW 11.8 mph 11.8 mph 21 % 0 in
15:29 47.1 °F 8.1 °F 29.8 in WNW 5.8 mph 5.8 mph 20 % 0 in
15:39 47.1 °F 9.1 °F 29.8 in WSW 8.1 mph 8.1 mph 21 % 0 in
15:44 47.1 °F 9.1 °F 29.8 in West 5.9 mph 5.9 mph 21 % 0 in
15:49 47.1 °F 8.1 °F 29.8 in West 9.2 mph 9.2 mph 20 % 0 in
15:59 46.9 °F 7.9 °F 29.8 in NNW 8.1 mph 8.1 mph 20 % 0 in
16:04 46.8 °F 7.7 °F 29.8 in SSW 5.8 mph 5.8 mph 20 % 0 in
16:09 46.8 °F 7.7 °F 29.8 in ESE 5.8 mph 5.8 mph 20 % 0 in
16:14 46.6 °F 7.5 °F 29.8 in SW 4.3 mph 4.3 mph 20 % 0 in
16:19 46.6 °F 7.5 °F 29.8 in NE 4.6 mph 4.6 mph 20 % 0 in
16:29 46.4 °F 7.3 °F 29.8 in SSW 5.8 mph 5.8 mph 20 % 0 in
16:34 46.4 °F 7.3 °F 29.8 in WSW 5.8 mph 5.8 mph 20 % 0 in
16:39 46.2 °F 7.3 °F 29.8 in West 6.9 mph 6.9 mph 20 % 0 in
16:44 46.2 °F 7.3 °F 29.8 in SSW 2.9 mph 2.9 mph 20 % 0 in
16:54 46 °F 7.2 °F 29.8 in WSW 4.6 mph 4.6 mph 20 % 0 in
16:59 46 °F 7.2 °F 29.8 in West 2.3 mph 2.3 mph 20 % 0 in
17:04 46 °F 7.2 °F 29.8 in WNW 2.3 mph 2.3 mph 20 % 0 in
17:14 46 °F 7.2 °F 29.9 in NNE 4.6 mph 4.6 mph 20 % 0 in
17:19 45.9 °F 7 °F 29.9 in WNW 3.5 mph 3.5 mph 20 % 0 in
17:24 45.7 °F 6.8 °F 29.9 in West 2.3 mph 2.3 mph 20 % 0 in
17:34 45.5 °F 6.6 °F 29.9 in NW 4.6 mph 4.6 mph 20 % 0 in
17:44 45.1 °F 5.4 °F 29.9 in NE 2.6 mph 2.6 mph 19 % 0 in
17:49 45 °F 5.2 °F 29.9 in NNE 4.6 mph 4.6 mph 19 % 0 in
17:54 44.8 °F 6.1 °F 29.9 in NNE 3.5 mph 3.5 mph 20 % 0 in
18:00 44.8 °F 6.1 °F 29.9 in NNE 2.3 mph 2.3 mph 20 % 0 in
18:07 44.6 °F 5.9 °F 29.9 in NNE 2.3 mph 2.3 mph 20 % 0 in
18:17 44.4 °F 5.7 °F 29.9 in NE 3.6 mph 3.6 mph 20 % 0 in
18:22 44.6 °F 5.9 °F 29.9 in ENE 2.3 mph 2.3 mph 20 % 0 in
18:27 44.4 °F 5.7 °F 29.9 in NE 4.3 mph 4.3 mph 20 % 0 in
18:37 44.2 °F 5.5 °F 29.9 in NNE 2.3 mph 2.3 mph 20 % 0 in
18:42 43.9 °F 6.4 °F 29.9 in NNE 2.9 mph 2.9 mph 21 % 0 in
18:48 44.1 °F 7.5 °F 29.9 in ENE 4.6 mph 4.6 mph 22 % 0 in
18:53 44.1 °F 7.5 °F 29.9 in NNE 4.6 mph 4.6 mph 22 % 0 in
19:03 43.9 °F 8.4 °F 29.9 in NNE 2.3 mph 2.3 mph 23 % 0 in
19:08 43.7 °F 9.1 °F 29.9 in ENE 1.2 mph   24 % 0 in
19:13 43.7 °F 9.1 °F 29.9 in ENE 1.2 mph 1.4 mph 24 % 0 in
19:18 43.7 °F 10 °F 29.9 in NNE 1.2 mph 1.2 mph 25 % 0 in
19:23 43.7 °F 10 °F 29.9 in Calm     25 % 0 in
19:28 43.5 °F 10 °F 29.9 in Calm     25 % 0 in
19:38 43.5 °F 10.8 °F 29.9 in Calm     26 % 0 in
19:43 43.5 °F 10.8 °F 29.9 in NNE 1.2 mph   26 % 0 in
19:48 43.3 °F 10.8 °F 30 in NNE 2.4 mph 2.4 mph 26 % 0 in
19:58 43.2 °F 11.5 °F 30 in South 2.6 mph 2.6 mph 27 % 0 in
20:03 43.3 °F 11.5 °F 30 in South 2.3 mph 2.3 mph 27 % 0 in
20:08 43.3 °F 11.5 °F 30 in South 3.5 mph 3.5 mph 27 % 0 in
20:13 43.3 °F 11.5 °F 30 in West 1.6 mph 1.6 mph 27 % 0 in
20:28 43.3 °F 12.4 °F 30 in Calm     28 % 0 in
20:33 43.3 °F 12.4 °F 30 in NNE 1.2 mph 1.2 mph 28 % 0 in
20:43 43.2 °F 12.9 °F 30 in SW 2.3 mph 2.3 mph 29 % 0 in
20:48 43 °F 12.7 °F 30 in SW 1.2 mph   29 % 0 in
20:58 43 °F 12.7 °F 30 in NW 1.2 mph   29 % 0 in
21:03 43.2 °F 12.9 °F 30 in Calm     29 % 0 in
21:08 43 °F 12.7 °F 30 in NW 1.2 mph 1.2 mph 29 % 0 in
21:18 42.8 °F 13.5 °F 30 in Calm     30 % 0 in
21:23 42.8 °F 13.5 °F 30 in Calm     30 % 0 in
21:28 42.6 °F 13.3 °F 30 in Calm     30 % 0 in
21:38 42.4 °F 11.7 °F 30 in Calm     28 % 0 in
21:48 42.4 °F 12.4 °F 30 in WSW 2.3 mph 2.3 mph 29 % 0 in
21:53 42.3 °F 12.2 °F 30 in WSW 2.3 mph 2.3 mph 29 % 0 in
21:58 42.1 °F 12 °F 30 in WSW 2.3 mph 2.3 mph 29 % 0 in
22:03 42.1 °F 11.3 °F 30 in West 4.6 mph 4.6 mph 28 % 0 in
22:13 42.6 °F 10.9 °F 30 in WSW 3.5 mph 3.5 mph 27 % 0 in
22:23 42.4 °F 9.9 °F 30 in West 2.3 mph 2.6 mph 26 % 0 in
22:28 42.4 °F 9.9 °F 30 in WSW 2.4 mph 2.4 mph 26 % 0 in
22:29 42.4 °F 9.9 °F 30 in WNW 3.5 mph 3.5 mph 26 % 0 in
22:34 42.4 °F 9.9 °F 30 in WSW 4.6 mph 4.6 mph 26 % 0 in
22:44 42.4 °F 9.9 °F 30 in WSW 5.8 mph 5.8 mph 26 % 0 in
22:49 42.6 °F 9.1 °F 30 in WSW 4.6 mph 4.6 mph 25 % 0 in
22:59 42.4 °F 9.9 °F 30 in WNW 8.1 mph 8.1 mph 26 % 0 in
23:09 42.3 °F 9.9 °F 30 in WSW 4.6 mph 4.6 mph 26 % 0 in
23:19 42.3 °F 9.9 °F 30 in SW 3.5 mph 3.5 mph 26 % 0 in
23:24 42.3 °F 9.9 °F 30 in WSW 4.6 mph 4.6 mph 26 % 0 in
23:35 42.4 °F 9 °F 30 in West 2 mph 7 mph 25 % 0 in
23:40 42.6 °F 9.1 °F 30 in WSW 9.2 mph 9.2 mph 25 % 0 in
23:50 42.4 °F 9 °F 30 in WSW 3 mph 8 mph 25 % 0 in
Meteo Sesrovires
Elogis d' Weather Underground - 3.75 mb

Guio original per  Jim McMurry - jmcmurry@mwt.net Adaptat per a la plantilla per  Wim van der Kuil - Leuven-Template.eu

Trobareu la nostra informacio del temps tambe a:

Weather Underground

AWEKAS